Flag for Western Sahara Weather past 2 weeks in Smara, Western Sahara

Now
72 °F

Overcast.


Feels Like: 72 °F
Forecast: 66 / 92 °F
Wind: 25 mph from Northeast

Location: Laayoune/Hassan Isl

Current Time: Jul 30, 2015 at 1:13:44 AM

Latest Report: Jul 30, 2015 at 12:00 AM


Visibility: 5 mi

Pressure: 29.98 "Hg

Humidity: 78%

Dew point: 64 °F

Location of SmaraLocation

Historic Weather in Smara — Graph

°F

Smara temperature yesterday

Maximum temperature yesterday: 82 °F (at 2:00 PM)
Minimum temperature yesterday: 70 °F (at 1:00 AM)
Average temperature yesterday: 75 °F

Past Weeks' High & Low Weather Summary

 TemperatureHumidityPressure
High91 °F (Jul 15, 2:00 PM)89% (Jul 23, 9:00 AM)30.07 "Hg (Jul 23, 9:00 AM)
Low68 °F (Jul 17, 5:00 AM)33% (Jul 24, 3:00 PM)29.83 "Hg (Jul 15, 4:00 PM)
Average76 °F69%29.95 "Hg
* Reported Jul 14 11:00 PM — Midnight between Jul 29 and Jul 30, Smara, Weather by CustomWeather, © 2015

Note: Actual official high and low records may vary slightly from our data, if they occured in-between our weather recording intervals... More about our weather records

Advertising

Smara weather history for previous 24 hours

 ConditionsComfort  
Time TempWeatherWind HumidityBarometerVisibility
12:00 AM
Thu, Jul 30
72 °FOvercast.25 mph78%29.98 "Hg5 mi
11:00 PM
Wed, Jul 29
72 °FOvercast.28 mph78%29.95 "Hg5 mi
10:00 PM72 °FOvercast.26 mph73%29.95 "Hg5 mi
9:00 PM73 °FOvercast.23 mph74%29.95 "Hg5 mi
8:00 PM75 °FSunny.24 mph69%29.92 "Hg5 mi
7:00 PM79 °FClear.23 mph58%29.92 "Hg5 mi
6:00 PM82 °FClear.23 mph55%29.92 "Hg5 mi
5:00 PM82 °FClear.24 mph51%29.92 "Hg5 mi
4:00 PM82 °FSunny.25 mph51%29.95 "Hg10 mi
3:00 PM82 °FSunny.23 mph51%29.95 "Hg10 mi
2:00 PM82 °FSunny.23 mph51%29.98 "Hg10 mi
1:00 PM79 °FSunny.22 mph61%29.98 "Hg10 mi
12:00 PM77 °FPassing clouds.24 mph65%29.98 "HgN/A
11:00 AM75 °FPartly sunny.22 mph69%29.98 "HgN/A
10:00 AM72 °FOvercast.22 mph78%29.98 "Hg5 mi
9:00 AM72 °FOvercast.21 mph78%29.98 "Hg5 mi
7:00 AM70 °FOvercast.21 mph83%29.95 "HgN/A
6:00 AM70 °FOvercast.20 mph83%29.95 "HgN/A
5:00 AM70 °FOvercast.25 mph83%29.95 "HgN/A
4:00 AM70 °FOvercast.25 mph83%29.95 "HgN/A
3:00 AM72 °FOvercast.25 mph78%29.95 "HgN/A
2:00 AM72 °FOvercast.24 mph78%29.98 "HgN/A
1:00 AM70 °FPassing clouds.17 mph83%29.95 "HgN/A
Weather by CustomWeather, © 2015

See weather overviewHow to use our weather pages